Regional Weather Roundup
Issued by NWS

Home | Current Version | Previous Version | Graphics & Text | Print | Product List | Glossary On
Versions: 1 2 3 4 5 6 7 8 9 10 11 12 13 14 15 16 17 18 19 20 21 22 23 24 25 26 27 28 29 30 31 32 33 34 35 36 37 38 39 40 41 42 43 44 45 46 47 48 49 50
832
ASUS44 KLIX 260310
RWRLA
LOUISIANA WEATHER ROUNDUP
NATIONAL WEATHER SERVICE NEW ORLEANS LA
900 PM CST SUN JAN 25 2015

NOTE: "FAIR" INDICATES FEW OR NO CLOUDS BELOW 12,000 FEET WITH NO
      SIGNIFICANT WEATHER AND/OR OBSTRUCTIONS TO VISIBILITY.
      SKY/WX - SKY CONDITION AND SIGNIFICANT WEATHER.
      TMP - AIR TEMPERATURE.    DP   - DEWPOINT TEMPERATURE.
      RH  - RELATIVE HUMIDITY.  PRES - PRESSURE.
      HX  - HEAT INDEX.         WCI  - WIND CHILL INDEX.

*  THESE STATIONS ARE NOT NWS OR FAA STATIONS AND ARE NOT UNDER
   NWS QUALITY CONTROL.

LAZ040-048-061>063-065-066-069-260400-
SOUTHEAST LOUISIANA

CITY           SKY/WX    TMP DP  RH WIND       PRES   REMARKS
N.O. AUDUBON     N/A     56  47  73 MISG        N/A
N.O. INTL ARPT PTCLDY    56  44  64 W13       29.94R
N.O. LAKEFRONT CLEAR     57  46  66 W20       29.94R
N.O. DOWNTOWN* MOCLDY    57  41  54 SW6       29.95R
SLIDELL        PTCLDY    57  42  57 VRB3      29.92R
BATON ROUGE    CLEAR     53  43  68 W7        29.96R
BOOTHVILLE     CLEAR     58  50  75 W18G26    29.95R
BELLE CHASSE   PTCLDY    55  43  63 W9        29.94R
BOGALUSA*        N/A     52  41  64 W6        29.92R
GALLIANO*      CLEAR     56  49  75 MISG      29.97R
NEW ROADS*     FAIR      56  38  50 NW10G16   29.97R
GONZALES*      FAIR      55  46  69 W5        29.95R
HAMMOND*       CLEAR     54  41  62 W6        29.95R
HOUMA*         CLEAR     53  47  82 W7        29.97S
PORT FOURCHON* CLEAR     57  52  82 W15G23    30.01R

$$

LAZ041-044-053-054-260400-
SOUTHWEST LOUISIANA

CITY           SKY/WX    TMP DP  RH WIND       PRES   REMARKS
LAKE CHARLES   CLEAR     60  30  32 NW13      30.04R
LAFAYETTE      CLEAR     54  46  74 W8        30.00R
PATTERSON      CLEAR     54  46  76 W10       29.99R
SALT POINT       N/A     55  49  80 W9        29.98R
NEW IBERIA     CLEAR     55  47  74 W10       30.00R
CHENAULT AIRPK CLEAR     55  35  46 NW8       30.04R

$$

LAZ027-028-260400-
CENTRAL LOUISIANA

CITY           SKY/WX    TMP DP  RH WIND       PRES   REMARKS
FORT POLK      CLEAR     56  29  36 NW10      30.03R
ALEXANDRIA INT CLEAR     55  32  41 NW10      30.00R
ALEXANDRIA     CLEAR     56  30  37 NW6G17    30.00R

$$

LAZ001-002-260400-
NORTHWEST LOUISIANA

CITY           SKY/WX    TMP DP  RH WIND       PRES   REMARKS
SHREVEPORT     CLEAR     52  31  44 NW9       30.04R
BARKSDALE AFB  CLEAR     50  33  51 N9        30.04R
DTN SHREVEPORT CLEAR     52  30  43 NW7       30.04R

$$

LAZ014-016-260400-
NORTHEAST LOUISIANA

CITY           SKY/WX    TMP DP  RH WIND       PRES   REMARKS
MONROE         CLEAR     54  34  46 NW15G23   29.98R
TALLULAH       MOCLDY    55  36  48 NW9       29.95R

$$




USA.gov is the U.S. government's official web portal to all federal, state and local government web resources and services.